Flag for Italy Weather past 2 weeks in Palermo, Italy

Now
59 °F

Passing clouds.


Feels Like: 59 °F
Forecast: 53 / 67 °F
Wind: 5 mph from East

Location: Palermo / Punta Raisi

Current Time: Apr 22, 2015 at 1:35:58 AM

Latest Report: Apr 22, 2015 at 12:50 AM


Visibility: N/A

Pressure: 30.27 "Hg

Humidity: 88%

Dew point: 55 °F

Location of PalermoLocation

Historic Weather in Palermo — Graph

°F

Palermo temperature yesterday

Maximum temperature yesterday: 64 °F (at 10:50 AM)
Minimum temperature yesterday: 57 °F (at 1:20 AM)
Average temperature yesterday: 62 °F

Past Weeks' High & Low Weather Summary

 TemperatureHumidityPressure
High81 °F (Apr 17, 1:20 PM)100% (Apr 19, 3:50 AM)30.45 "Hg (Apr 19, 3:50 AM)
Low46 °F (Apr 8, 1:50 AM)20% (Apr 17, 1:20 PM)29.86 "Hg (Apr 19, 6:50 AM)
Average59 °F73%30.21 "Hg
* Reported Apr 7 12:20 AM — Apr 22 12:20 AM, Palermo, Weather by CustomWeather, © 2015

Note: Actual official high and low records may vary slightly from our data, if they occured in-between our weather recording intervals... More about our weather records

Advertising

Palermo weather history for previous 24 hours

 ConditionsComfort  
Time TempWeatherWind HumidityBarometerVisibility
12:20 AM
Wed, Apr 22
59 °FPassing clouds.5 mph88%30.24 "HgN/A
11:50 PM
Tue, Apr 21
59 °FPassing clouds.3 mph88%30.27 "HgN/A
10:50 PM59 °FPassing clouds.2 mph88%30.24 "HgN/A
10:20 PM59 °FPassing clouds.3 mph88%30.24 "HgN/A
9:50 PM61 °FClear.2 mph88%30.24 "Hg10 mi
9:20 PM63 °FClear.2 mph83%30.21 "Hg10 mi
8:50 PM63 °FClear.5 mph83%30.21 "Hg10 mi
8:20 PM63 °FSunny.6 mph83%30.21 "Hg10 mi
7:50 PM63 °FSunny.7 mph77%30.18 "Hg10 mi
7:20 PM63 °FSunny.8 mph77%30.18 "Hg10 mi
6:50 PM64 °FSunny.10 mph73%30.18 "Hg10 mi
6:20 PM64 °FPassing clouds.12 mph73%30.18 "HgN/A
5:50 PM64 °FPassing clouds.13 mph73%30.18 "HgN/A
5:20 PM64 °FSunny.12 mph73%30.18 "Hg10 mi
4:50 PM64 °FPassing clouds.12 mph73%30.18 "HgN/A
4:20 PM64 °FPassing clouds.12 mph73%30.18 "HgN/A
3:50 PM64 °FPassing clouds.12 mph73%30.18 "HgN/A
3:20 PM64 °FPassing clouds.12 mph78%30.18 "HgN/A
2:50 PM64 °FPassing clouds.13 mph83%30.18 "HgN/A
2:20 PM64 °FPassing clouds.12 mph83%30.21 "HgN/A
1:50 PM64 °FPassing clouds.12 mph83%30.21 "HgN/A
1:20 PM64 °FPassing clouds.12 mph83%30.21 "HgN/A
12:50 PM64 °FPassing clouds.13 mph78%30.21 "HgN/A
12:20 PM64 °FPassing clouds.13 mph78%30.21 "HgN/A
11:50 AM64 °FPassing clouds.10 mph78%30.18 "HgN/A
11:20 AM64 °FPassing clouds.10 mph73%30.18 "HgN/A
10:50 AM64 °FPassing clouds.9 mph73%30.18 "HgN/A
10:20 AM63 °FPassing clouds.9 mph73%30.15 "HgN/A
9:50 AM63 °FPassing clouds.12 mph77%30.15 "HgN/A
9:20 AM63 °FPassing clouds.10 mph83%30.15 "HgN/A
8:50 AM63 °FPassing clouds.6 mph83%30.15 "HgN/A
8:20 AM63 °FPassing clouds.5 mph83%30.12 "HgN/A
7:50 AM61 °FPassing clouds.7 mph94%30.12 "HgN/A
7:20 AM59 °FPassing clouds.8 mph94%30.12 "HgN/A
6:50 AM59 °FPassing clouds.8 mph88%30.12 "HgN/A
6:20 AM61 °FPassing clouds.8 mph88%30.09 "HgN/A
5:50 AM61 °FPassing clouds.3 mph83%30.09 "HgN/A
5:20 AM59 °FPassing clouds.2 mph88%30.09 "HgN/A
4:50 AM59 °FPassing clouds.5 mph82%30.09 "HgN/A
4:20 AM59 °FPassing clouds.3 mph82%30.09 "HgN/A
3:50 AM59 °FPassing clouds.3 mph82%30.09 "HgN/A
3:20 AM57 °FPassing clouds.2 mph88%30.09 "HgN/A
2:50 AM57 °FPassing clouds.5 mph88%30.09 "HgN/A
2:20 AM57 °FPassing clouds.6 mph88%30.09 "HgN/A
1:50 AM57 °FPassing clouds.6 mph88%30.09 "HgN/A
1:20 AM57 °FPassing clouds.8 mph88%30.09 "HgN/A
Weather by CustomWeather, © 2015

See weather overviewHow to use our weather pages